TimeMDT,TemperatureF,Dew PointF,Humidity,Sea Level PressureIn,VisibilityMPH,Wind Direction,Wind SpeedMPH,Gust SpeedMPH,PrecipitationIn,Events,Conditions,WindDirDegrees,DateUTC
12:00 AM,34.5,32.0,90,29.89,-9999.0,Calm,Calm,-,N/A,,Unknown,0,2013-09-25 06:00:00
1:00 AM,35.6,31.8,86,29.89,-9999.0,ENE,1.2,-,N/A,,Unknown,70,2013-09-25 07:00:00
2:00 AM,36.5,34.7,93,29.90,-9999.0,North,3.5,-,0.01,,Unknown,360,2013-09-25 08:00:00
3:00 AM,35.8,35.1,97,29.90,-9999.0,Calm,Calm,-,0.02,,Unknown,0,2013-09-25 09:00:00
4:00 AM,35.6,35.1,98,29.91,-9999.0,NE,1.2,-,0.04,,Unknown,50,2013-09-25 10:00:00
5:00 AM,35.8,35.1,97,29.92,-9999.0,ENE,2.3,-,0.02,,Unknown,60,2013-09-25 11:00:00
6:00 AM,35.8,35.1,97,29.94,-9999.0,NE,3.5,-,0.02,,Unknown,50,2013-09-25 12:00:00
7:00 AM,35.4,34.9,98,29.96,-9999.0,NNE,2.3,-,N/A,,Unknown,30,2013-09-25 13:00:00
8:00 AM,35.8,35.2,98,29.99,-9999.0,East,2.3,-,N/A,,Unknown,100,2013-09-25 14:00:00
9:00 AM,36.5,35.8,97,30.00,-9999.0,NW,1.2,-,N/A,,Unknown,310,2013-09-25 15:00:00
10:00 AM,38.5,36.0,91,30.01,-9999.0,NE,3.5,-,N/A,,Unknown,50,2013-09-25 16:00:00
11:00 AM,38.5,35.2,88,30.03,-9999.0,East,6.9,-,N/A,,Unknown,100,2013-09-25 17:00:00
12:00 PM,38.8,36.7,92,30.03,-9999.0,ENE,4.6,-,N/A,,Unknown,70,2013-09-25 18:00:00
1:00 PM,40.1,36.5,87,30.03,-9999.0,ESE,5.8,-,N/A,,Unknown,120,2013-09-25 19:00:00
2:00 PM,40.3,35.8,84,30.03,-9999.0,ESE,4.6,-,N/A,,Unknown,120,2013-09-25 20:00:00
3:00 PM,42.6,33.4,70,30.02,-9999.0,East,2.3,-,N/A,,Unknown,80,2013-09-25 21:00:00
4:00 PM,42.1,37.0,82,30.03,-9999.0,South,4.6,-,N/A,,Unknown,170,2013-09-25 22:00:00
5:00 PM,40.5,36.5,86,30.05,-9999.0,SSE,4.6,-,N/A,,Unknown,160,2013-09-25 23:00:00
6:00 PM,40.8,36.3,84,30.07,-9999.0,ESE,2.3,-,N/A,,Unknown,120,2013-09-26 00:00:00
7:00 PM,39.2,35.6,87,30.08,-9999.0,NE,1.2,-,N/A,,Unknown,40,2013-09-26 01:00:00
8:00 PM,37.4,34.9,91,30.10,-9999.0,SE,3.5,-,0.01,,Unknown,130,2013-09-26 02:00:00
9:00 PM,36.5,35.6,97,30.11,-9999.0,ENE,1.2,-,N/A,,Unknown,60,2013-09-26 03:00:00
10:00 PM,36.5,35.6,97,30.12,-9999.0,East,1.2,-,N/A,,Unknown,90,2013-09-26 04:00:00
11:00 PM,36.1,35.4,97,30.12,-9999.0,East,1.2,-,0.02,,Unknown,80,2013-09-26 05:00:00